Regional Weather Roundup
Issued by NWS

Home | Current Version | Previous Version | Graphics & Text | Print | Product List | Glossary Off
Versions: 1 2 3 4 5 6 7 8 9 10 11 12 13 14 15 16 17 18 19 20 21 22 23 24 25 26 27 28 29 30 31 32 33 34 35 36 37 38 39 40 41 42 43 44 45 46 47 48 49 50

000
ASUS43 KDMX 241303
RWRIA

WEATHER ROUNDUP FOR IOWA
NATIONAL WEATHER SERVICE DES MOINES IA
800 AM CDT TUE MAY 24 2016

NOTE: "FAIR" INDICATES FEW OR NO CLOUDS BELOW 12,000 FEET WITH NO
SIGNIFICANT WEATHER AND/OR OBSTRUCTIONS TO VISIBILITY.

* - THESE STATIONS ARE NOT NWS STATIONS...THUS NOT UNDER NWS
QUALITY CONTROL.  THEY ALSO DO NOT REPORT WEATHER SUCH
AS PRECIPITATION OR FOG.

IAZ001>003-012>014-020>022-031>034-043>046-241400-
   NORTHWEST IOWA

CITY           SKY/WX    TMP DP  RH WIND       PRES   REMARKS
CARROLL *      SUNNY     63  61  94 SW13      29.90R
CHEROKEE *     CLOUDY    61  61 100 S5        29.89R
DENISON *      SUNNY     63  61  94 S7        29.88F
LE MARS *      CLOUDY    63  61  94 S12       29.89R FOG
ORANGE CITY *  CLOUDY    63  61  94 S12       29.88S FOG
SHELDON *      CLOUDY    63  61  94 S8        29.88R
SIOUX CITY     CLOUDY    63  60  90 SE7       29.88S
SPENCER        CLOUDY    63  59  87 SW8       29.90R
STORM LAKE *   SUNNY     61  59  94 SW9       29.91R
$$

IAZ055>058-069>071-079>083-090>094-241400-
   SOUTHWEST IOWA

CITY           SKY/WX    TMP DP  RH WIND       PRES   REMARKS
ATLANTIC *     CLOUDY    64  61  88 CALM      29.91R
AUDUBON *      PTSUNNY   63  61  94 S6        29.92R
CLARINDA *       N/A     64  63  94 MISG      29.92S
COUNCIL BLFS * SUNNY     64  63  94 S6        29.91S
CRESTON *      CLOUDY    63  63 100 S14       29.93R
HARLAN  *        N/A    N/A N/A N/A MISG        N/A
LAMONI         PTSUNNY   64  62  93 S10       29.93R
RED OAK *      PTSUNNY   64  63  94 S6        29.91R
SHENANDOAH *   CLOUDY    66  64  94 CALM      29.90F
$$

IAZ047>049-059>061-072>074-084-241400-
   CENTRAL IOWA

CITY           SKY/WX    TMP DP  RH WIND       PRES   REMARKS
AMES           CLOUDY    65  63  93 S3        29.91R
ANKENY *       CLOUDY    64  64 100 CALM      29.91R
BOONE *        SUNNY     63  63 100 S6        29.90R
CHARITON *     SUNNY     64  63  94 S8        29.91R
DES MOINES     CLOUDY    65  61  87 S5        29.92R
GRINNELL*      CLOUDY    64  61  88 S6        29.93R
KNOXVILLE *    CLOUDY    66  61  82 CALM      29.91R
MARSHALLTOWN   CLOUDY    65  63  93 S7        29.90R
NEWTON *       CLOUDY    64  64 100 CALM      29.92R
PERRY *          N/A     64  63  94 S6        29.91R
$$

IAZ004>006-015-016-023>025-035-036-241400-
   NORTH CENTRAL IOWA

CITY           SKY/WX    TMP DP  RH WIND       PRES   REMARKS
ALGONA *       SUNNY     63  61  94 SW7       29.90R
CLARION *      SUNNY     63  61  94 SW9       29.90R
ESTHERVILLE    CLOUDY    63  60  90 SW15      29.89R
FORT DODGE *   CLOUDY    61  57  88 S3        29.92R
MASON CITY     CLOUDY    64  60  87 W9        29.91R
FOREST CITY *    N/A     63  59  88 SW5       29.91R
WEBSTER CITY * SUNNY     63  61  94 SW5       29.89R
IOWA FALLS *     N/A     66  63  88 S6        29.91R
$$

IAZ007>011-017>019-026>030-037>042-050>054-066-241400-
   NORTHEAST IOWA

CITY           SKY/WX    TMP DP  RH WIND       PRES   REMARKS
CEDAR RAPIDS   CLOUDY    66  63  90 S5        29.89F
CHARLES CITY * PTSUNNY   64  64 100 SW6G13    29.90R
DECORAH *      PTSUNNY   66  61  82 S7        29.88R
DUBUQUE        PTSUNNY   67  56  67 S8        29.92S
MONTICELLO *   CLOUDY    70  61  73 S6        29.90S
OELWEIN *      PTSUNNY   64  63  94 S10       29.90R
WATERLOO       PTSUNNY   65  61  87 S6        29.88S
$$

IAZ064-065-067-068-078-241400-
   EAST CENTRAL IOWA

CITY           SKY/WX    TMP DP  RH WIND       PRES   REMARKS
DAVENPORT      SUNNY     69  55  60 S10       29.95F
IOWA CITY      CLOUDY    67  59  75 SE12      29.92F
MT. PLEASANT * MOSUNNY   72  61  68 S9        29.93F
MUSCATINE *    SUNNY     70  57  64 S9        29.94F
QUAD CITIES    SUNNY     70  56  61 S8        29.94F
$$

IAZ062-063-075>077-085>089-095>099-241400-
   SOUTHEAST IOWA

CITY           SKY/WX    TMP DP  RH WIND       PRES   REMARKS
BURLINGTON     CLOUDY    67  58  72 S7        29.94F
FAIRFIELD *      N/A    N/A N/A N/A MISG        N/A
FORT MADISON * CLOUDY    68  57  68 S7        29.96S
KEOKUK *       CLOUDY    70  59  68 S7        29.95S
OSKALOOSA *      N/A     65  60  85 W8        29.94R
OTTUMWA        PTSUNNY   67  60  78 S9        29.92R
WASHINGTON *   SUNNY     68  59  73 SE12      29.92F
$$

ABBREVIATIONS USED IN REMARKS
   TC - TEMPERATURES IN CELSIUS
  WCI - WIND CHILL INDEX
   HX - HEAT INDEX
  VSB - VISIBILITY
$$





USA.gov is the U.S. government's official web portal to all federal, state and local government web resources and services.